SCP
0 0 0 1 1 1 0 0 0 1 0 0 1 1 1 1 1 1 1 1 3 5 5 4 5 5 4 3 3 2 2 2 1 1 1 2 2 3 3 3 2 1 1 1 1 1 1 1 0
0 0 0 1 1 1 0 0 1 1 1 1 1 1 1 1 1 1 1 2 4 6 5 4 4 4 4 3 3 2 2 2 1 1 1 2 2 3 3 3 2 1 1 1 1 1 1 1 1
0 0 0 0 0 0 0 0 1 1 1 1 1 1 1 1 1 1 1 2 5 6 5 4 4 4 3 3 2 2 1 1 1 1 2 2 2 3 3 3 2 1 1 1 1 1 1 1 1
0 0 0 0 0 0 0 0 1 1 1 1 1 1 1 1 1 1 1 3 4 4 4 3 3 3 3 2 2 1 1 1 1 1 2 2 2 3 3 3 2 2 1 1 1 1 1 1 1
0 0 0 0 0 0 0 0 1 1 1 1 1 1 1 1 1 1 1 2 3 3 3 3 3 3 2 2 2 1 1 1 1 1 1 2 2 2 3 3 2 2 1 1 1 1 1 1 1
0 0 0 0 0 0 0 0 1 1 1 1 1 1 2 2 1 1 1 2 3 3 3 3 3 3 2 2 2 2 2 1 1 1 1 1 2 2 2 3 2 2 1 1 1 1 1 1 1
0 0 0 0 0 0 0 1 1 1 0 1 1 1 2 2 2 2 3 3 3 3 3 3 3 3 2 2 2 2 2 2 1 1 1 1 2 2 2 2 2 2 1 1 1 1 1 1 1
0 0 0 0 0 0 1 1 1 1 0 1 1 1 2 2 2 3 5 4 3 3 4 3 3 3 3 2 2 2 2 2 2 1 1 1 1 2 2 2 2 2 1 1 1 1 1 1 1
0 0 0 0 0 0 1 1 1 0 0 1 1 1 2 2 2 4 5 3 3 3 3 3 3 2 2 2 2 2 2 2 2 2 1 1 1 1 1 2 2 2 1 1 1 1 1 1 1
0 0 0 0 0 0 0 0 0 0 1 1 1 1 2 1 2 4 4 3 3 3 3 3 3 2 2 2 2 2 2 2 2 2 2 1 1 1 1 2 2 2 2 1 2 2 2 1 1
0 0 0 0 0 0 0 0 0 0 1 2 2 2 2 2 2 3 3 3 3 3 3 4 3 3 3 3 3 3 3 2 2 2 2 2 2 2 2 2 2 2 2 2 2 2 1 1 1
0 0 0 1 1 0 0 0 0 1 2 3 3 2 2 2 3 3 3 3 3 3 4 5 5 5 5 5 4 4 3 2 2 2 2 2 2 2 2 2 2 2 2 2 2 1 1 1 1
0 0 1 1 1 0 0 0 0 1 2 3 2 2 2 2 3 3 2 3 4 5 6 8 9 9 8 7 6 4 3 3 2 2 3 3 2 2 2 2 2 3 3 3 3 2 1 1 1
0 0 1 1 1 0 0 0 0 1 2 2 2 2 2 2 3 2 2 3 5 7 9 12 13 13 13 11 8 6 4 4 3 3 4 3 3 3 3 3 3 3 4 4 4 4 3 3 3
0 0 1 1 1 1 0 0 0 1 2 2 3 2 2 2 2 2 2 3 6 8 11 13 15 16 16 14 11 8 6 5 5 4 4 4 4 4 4 4 4 4 5 5 5 5 4 5 5
0 0 0 1 1 1 1 1 1 1 2 3 3 3 3 3 3 3 3 5 8 11 13 15 16 16 17 15 13 10 8 7 6 5 5 4 4 4 4 4 4 5 5 5 5 4 5 5 5
0 0 0 1 1 1 1 1 1 1 2 3 4 4 4 4 4 5 5 7 10 14 16 18 18 18 17 16 13 11 8 8 8 7 7 6 5 4 4 4 4 4 4 4 4 4 5 5 5
0 0 0 1 1 1 1 1 1 1 2 2 4 5 5 5 5 6 7 8 10 15 18 20 20 20 18 16 13 10 9 9 10 10 9 7 5 4 4 4 3 3 3 3 4 4 4 4 4
0 0 0 0 0 0 0 1 2 2 1 2 4 6 6 6 6 7 7 7 9 14 19 20 20 20 19 16 13 11 11 12 12 12 11 9 6 5 4 3 3 3 2 3 3 4 4 4 3
0 0 0 0 0 0 0 1 2 1 1 3 6 8 7 6 6 6 6 6 9 14 18 19 20 20 20 19 16 14 13 13 13 13 12 10 7 5 4 3 3 3 2 3 3 4 3 3 3
0 0 0 0 0 0 0 1 1 1 1 3 6 8 7 5 4 5 6 7 9 13 16 18 19 22 22 21 18 15 13 13 12 12 11 9 7 6 4 4 3 3 3 3 3 4 3 2 2
0 0 0 0 0 0 0 1 2 1 1 3 5 6 5 4 3 4 6 7 8 11 15 17 19 22 23 21 17 13 12 11 11 11 10 9 7 6 6 6 5 4 4 4 4 4 3 2 2
0 0 0 0 0 0 0 1 2 2 2 2 3 4 5 4 4 4 5 7 8 10 14 16 18 20 20 17 14 11 10 10 10 10 9 8 7 6 7 8 6 4 4 4 4 4 3 2 1
0 0 0 0 1 1 1 1 1 2 2 2 3 4 5 5 5 4 5 6 8 10 14 16 16 16 15 13 11 10 10 10 9 9 8 7 6 5 6 7 5 3 3 4 3 3 2 2 2
0 0 0 1 1 1 1 1 1 2 2 3 3 4 4 5 5 4 4 6 8 10 12 15 15 13 12 11 10 10 9 9 8 7 7 6 5 4 4 4 4 3 3 3 3 2 2 2 2
0 0 1 1 1 1 1 2 2 2 3 3 4 4 4 5 5 4 4 5 9 10 10 11 12 12 11 11 10 9 9 7 6 6 6 5 4 3 3 3 4 3 3 3 2 2 2 2 2
0 0 1 1 0 0 1 2 3 3 3 5 5 5 5 5 5 4 4 6 10 11 8 7 9 10 11 11 10 9 8 7 6 6 6 6 5 4 4 4 5 4 4 3 3 3 3 2 2
0 0 1 1 1 1 1 2 3 4 5 6 7 6 6 5 5 4 4 5 9 10 7 6 8 9 9 10 10 9 8 7 6 6 6 6 6 6 5 5 5 5 5 4 4 3 3 2 2
0 0 1 1 1 1 1 2 4 5 6 6 6 5 5 4 4 4 3 4 7 8 7 7 8 8 8 8 10 11 11 10 8 6 6 7 8 8 7 6 5 5 5 4 4 3 3 2 2
0 0 1 1 1 1 1 2 5 7 7 6 5 4 3 3 3 3 3 4 6 6 7 8 7 7 7 7 9 12 14 14 11 8 6 7 8 9 8 7 5 5 5 4 3 3 2 2 2
Wind_Speed
8 11 10 8 7 6 5 3 8 10 11 11 10 11 14 14 10 10 9 13 17 17 15 13 11 10 10 9 8 8 8 7 7 7 7 8 8 8 8 8 8 7 7 7 8 7 7 7 6
10 12 10 7 7 5 1 6 9 11 10 9 9 11 13 13 12 11 10 13 16 16 13 12 11 10 9 9 8 8 8 7 7 7 7 7 8 8 7 7 8 7 7 7 7 7 7 7 6
11 15 8 6 7 4 4 8 10 9 9 7 8 11 10 10 11 10 11 14 16 15 13 13 12 10 9 9 8 7 7 7 6 6 7 8 8 8 7 7 7 7 7 7 7 7 6 6 6
9 8 7 6 6 0 3 7 7 6 7 6 7 9 10 9 8 11 12 14 15 14 14 13 12 11 10 9 8 7 7 6 6 7 7 7 7 7 7 7 7 7 7 6 6 6 6 5 5
10 8 9 7 4 1 4 7 6 5 5 6 8 10 11 11 12 12 11 12 14 14 14 13 12 11 10 9 8 7 7 7 6 6 6 6 6 6 6 6 6 6 6 6 5 5 5 4 3
8 8 9 6 1 2 4 4 4 4 5 6 8 10 9 11 10 10 11 11 12 14 14 13 12 12 10 9 8 7 6 6 6 6 6 5 5 5 5 5 5 5 5 5 5 4 4 4 3
10 9 9 7 3 2 3 4 3 3 4 4 6 10 10 9 9 10 11 10 12 13 13 11 11 10 10 9 8 7 6 6 6 6 5 4 4 5 5 5 5 4 4 4 3 3 3 3 2
10 9 11 9 4 2 4 3 3 3 3 4 5 6 9 11 10 9 10 9 10 11 11 10 10 9 8 8 8 7 7 7 6 5 5 4 4 4 5 5 4 4 4 3 3 3 3 3 3
13 10 9 6 3 1 5 3 3 5 3 4 6 9 12 12 12 10 8 8 9 9 9 9 9 8 7 8 8 8 8 7 6 5 5 5 4 4 4 4 6 5 4 4 3 4 4 4 5
10 9 9 4 3 1 2 2 2 3 3 4 7 11 14 12 11 10 9 8 9 9 9 8 7 6 5 5 6 5 5 5 4 3 4 3 1 1 3 5 7 5 5 4 5 5 5 5 3
12 11 9 4 1 1 1 1 1 1 2 4 5 9 11 11 10 9 9 8 8 9 8 8 7 6 5 4 4 2 2 3 3 3 3 2 1 1 2 2 3 3 4 3 4 4 3 3 2
12 11 9 5 2 2 2 1 1 1 2 4 5 8 9 9 9 9 8 8 7 7 8 7 7 5 4 3 3 3 2 2 2 2 1 1 1 1 1 1 1 2 1 2 2 2 2 2 2
12 10 7 5 3 3 3 3 2 1 2 4 6 9 9 9 9 8 8 8 8 7 7 7 6 5 3 3 1 2 2 2 2 2 1 0 0 0 1 0 0 1 0 1 1 0 1 1 1
9 8 8 7 6 6 5 5 5 4 4 4 6 8 8 8 9 8 7 7 7 7 7 6 6 6 4 2 1 1 2 2 1 1 1 0 0 1 1 0 0 0 0 0 1 0 1 1 1
9 9 9 9 9 7 6 7 7 6 6 6 7 7 8 8 7 8 8 7 8 7 6 6 6 6 4 3 2 2 1 2 1 1 1 1 1 1 1 0 1 0 0 0 1 1 1 1 1
11 12 12 11 11 9 9 9 6 7 9 8 7 7 7 7 8 8 8 7 7 8 7 5 5 6 5 3 1 1 1 1 2 2 1 1 1 1 0 0 0 0 0 0 0 1 1 1 1
13 13 13 11 11 11 11 8 6 6 7 7 7 7 7 8 8 8 9 8 8 7 7 6 4 5 5 3 2 1 1 1 1 2 1 1 1 1 0 1 1 1 0 0 1 0 1 1 1
12 12 12 11 10 10 9 8 7 6 7 7 8 8 8 8 7 7 8 9 9 8 7 6 5 4 4 3 2 1 1 2 1 1 2 2 1 0 0 1 1 1 1 1 1 1 1 1 1
13 11 10 8 7 8 8 8 7 6 7 7 7 8 9 9 8 8 8 9 10 9 8 7 6 4 3 2 2 2 2 1 1 2 3 2 1 1 0 1 1 0 0 0 0 0 1 1 1
13 12 12 8 9 8 8 8 8 8 9 8 8 8 7 8 8 9 8 7 8 9 8 7 6 5 4 2 1 1 1 2 2 2 3 2 1 1 1 0 0 0 0 0 0 1 1 1 1
13 13 12 10 7 8 8 9 9 9 9 8 7 7 7 7 8 9 9 8 9 8 8 7 5 5 4 2 2 1 1 1 1 2 2 2 1 1 0 1 0 0 0 1 1 1 1 1 1
13 12 12 11 9 9 11 9 9 9 9 8 8 8 8 8 8 8 9 9 9 9 8 7 6 5 3 3 2 2 2 1 1 1 1 2 1 1 1 0 0 1 1 1 1 1 2 2 2
12 11 11 12 11 12 12 11 7 7 8 7 7 6 6 6 7 7 9 9 8 9 9 8 6 5 4 3 3 2 1 1 1 1 1 1 1 1 1 0 1 1 1 1 1 1 1 1 2
11 11 11 12 11 14 14 13 8 7 7 6 6 6 5 5 5 5 7 8 7 8 8 8 7 6 5 4 3 2 2 1 1 0 1 0 0 1 0 0 1 1 2 2 2 2 2 2 2
12 11 8 10 11 12 11 10 4 5 7 7 7 7 6 6 5 5 6 7 7 7 7 8 8 6 5 4 3 3 2 2 1 1 1 0 0 0 1 1 2 2 2 2 2 2 2 2 3
11 13 11 10 9 8 8 7 3 5 6 6 5 6 6 5 4 5 5 7 7 7 6 7 7 5 5 4 3 3 2 1 1 1 1 1 1 1 1 1 2 2 2 2 2 2 2 2 2
11 12 13 13 14 11 6 4 4 4 6 6 5 5 6 6 5 4 4 5 6 6 5 5 6 5 5 4 3 3 2 2 2 2 2 1 1 2 1 1 1 2 2 2 2 2 2 2 2
12 10 8 10 9 9 6 5 4 7 6 6 5 5 6 6 6 4 3 4 5 4 4 5 4 4 4 3 3 3 3 2 1 1 1 1 1 2 1 1 1 2 2 2 2 2 2 2 2
12 13 11 9 9 8 6 2 2 6 7 7 5 4 5 5 5 4 4 4 5 5 4 4 4 4 3 3 2 2 2 2 1 1 1 1 1 1 1 2 2 2 2 2 2 2 2 2 3
11 12 11 8 9 9 6 1 3 5 6 6 5 5 5 4 4 4 4 4 4 4 4 3 4 4 3 2 2 2 2 2 1 1 2 1 1 1 1 1 1 2 2 2 2 2 2 2 2
Wind_Direction
238 239 235 248 245 246 273 54 69 66 64 58 51 57 61 49 57 88 106 106 107 112 117 115 110 110 109 106 104 101 97 92 87 82 78 76 80 83 82 82 83 85 92 95 93 91 90 91 93
261 253 243 249 261 260 304 67 68 65 65 66 66 64 70 72 76 97 102 107 110 114 120 116 115 111 111 109 106 104 102 98 92 89 85 83 84 87 86 85 85 84 89 94 94 93 90 92 94
263 262 262 248 256 274 45 65 68 69 65 63 70 67 62 75 86 98 108 112 109 112 116 118 119 115 113 110 109 109 107 104 98 93 90 88 88 88 89 88 87 85 88 91 96 95 90 90 89
258 242 236 248 260 251 80 79 77 73 69 69 78 79 78 73 92 106 116 116 116 120 120 122 124 122 120 115 110 108 110 108 104 99 93 90 91 90 92 92 91 89 89 91 95 96 93 90 89
245 260 254 250 250 19 82 79 83 84 77 74 83 95 92 83 99 111 118 120 121 121 121 128 129 127 125 124 119 113 112 111 109 107 102 97 98 99 98 99 96 94 94 97 98 100 99 94 89
255 256 263 264 195 61 55 80 89 83 93 99 109 113 104 112 115 124 123 122 121 120 121 129 134 134 132 130 127 122 120 120 120 119 114 110 109 108 105 105 103 100 100 102 104 106 109 106 94
258 273 276 280 261 115 63 58 55 62 65 82 105 109 118 123 126 132 126 124 121 119 123 134 139 141 142 136 134 132 133 133 132 132 130 130 130 126 121 117 117 117 117 120 120 126 136 135 134
260 277 278 267 243 130 107 87 79 67 50 67 87 100 128 135 136 130 126 122 119 120 126 136 143 147 151 146 142 138 141 145 145 151 156 156 159 159 148 139 137 138 138 145 150 159 171 181 187
254 262 264 276 285 125 119 112 103 100 102 92 93 108 125 136 141 136 130 126 124 126 131 137 143 144 154 151 143 149 152 160 161 170 177 179 184 171 166 146 147 160 165 174 180 188 194 204 210
242 253 258 250 285 324 87 123 158 139 136 120 100 106 128 141 145 147 144 145 139 139 140 138 133 138 150 140 143 159 161 157 180 165 172 199 209 150 145 144 159 174 187 196 209 216 217 220 213
239 252 265 262 257 313 280 209 248 187 148 106 112 129 143 151 152 155 152 152 146 147 143 138 137 143 148 133 144 152 149 153 184 159 179 192 180 158 132 147 158 185 194 205 201 213 229 223 204
240 249 259 265 276 272 281 302 316 356 77 101 127 141 149 159 157 161 154 143 140 143 141 133 131 135 131 124 142 146 142 150 158 145 181 160 192 168 130 147 161 186 199 193 205 208 225 238 229
237 243 250 252 252 257 251 247 252 247 157 140 145 142 163 164 162 159 149 145 143 144 138 129 126 118 111 108 129 126 129 137 129 130 154 130 201 117 118 130 169 230 173 186 252 237 245 251 232
248 246 244 239 233 231 235 239 230 218 208 180 163 159 170 167 163 156 145 140 142 144 137 133 133 122 120 120 118 104 110 103 104 118 109 149 61 63 62 94 322 316 21 342 295 354 314 301 318
252 252 246 240 233 224 229 243 225 209 209 200 187 177 166 163 156 157 152 148 146 144 136 135 139 129 133 136 147 120 112 124 108 99 110 128 68 67 47 73 219 252 302 311 346 334 289 255 255
248 244 244 237 226 217 223 243 220 200 206 204 196 183 165 156 162 165 157 151 150 146 138 144 153 139 141 138 148 129 139 121 130 119 105 105 79 77 74 76 31 296 211 195 219 243 262 268 279
237 236 237 233 216 217 220 234 222 203 201 194 190 183 173 163 167 162 156 153 148 139 140 150 139 136 147 147 154 151 128 100 107 115 124 131 173 159 148 101 33 297 235 214 255 112 276 275 287
237 239 235 228 210 213 218 222 225 210 205 198 191 186 180 175 166 158 157 152 147 143 144 142 135 133 140 146 156 154 134 124 135 120 109 114 136 115 108 140 102 300 348 6 2 53 286 272 269
256 260 256 242 219 224 228 225 228 233 217 210 201 191 189 178 170 161 158 158 150 145 142 142 143 139 144 152 171 172 162 155 130 111 100 115 125 119 206 16 147 219 282 79 359 351 252 263 266
254 259 259 239 225 231 238 234 227 225 228 213 207 196 188 176 169 160 159 155 148 146 146 145 147 149 154 159 175 170 166 173 147 113 113 120 122 145 186 147 261 143 358 1 330 310 276 266 210
250 253 259 256 236 233 247 248 234 212 217 208 200 190 186 187 176 165 167 161 150 147 148 150 150 150 160 164 150 140 134 140 112 115 123 126 137 155 150 181 217 214 206 181 232 257 266 270 256
248 248 255 259 253 250 241 250 239 207 194 192 196 191 186 189 176 172 169 166 158 153 147 140 143 141 148 152 156 172 164 164 136 127 135 141 152 164 147 132 255 267 274 203 232 211 272 260 262
255 257 259 263 259 266 257 255 230 202 202 190 186 182 175 176 173 168 163 161 158 151 149 147 146 144 149 155 152 161 147 140 102 106 122 142 147 131 97 142 252 250 265 246 251 251 255 269 272
253 255 255 256 256 253 254 256 231 196 192 177 166 158 156 160 155 151 147 145 148 148 148 148 145 148 157 165 161 156 154 144 123 147 148 188 188 148 76 226 256 244 252 255 246 240 244 258 269
237 242 241 240 236 245 246 247 232 178 160 162 162 158 154 146 147 147 149 147 146 143 142 143 145 153 159 163 160 157 172 161 148 198 178 226 271 208 223 245 230 243 241 240 243 242 248 254 265
234 238 240 253 254 254 241 229 197 124 114 117 130 140 134 132 136 145 146 144 143 141 142 141 144 147 155 161 164 167 178 183 174 187 228 218 253 245 222 217 225 241 246 243 237 241 242 234 248
239 241 250 260 270 270 245 189 135 125 125 119 126 140 135 131 119 122 124 128 129 136 134 137 142 150 154 160 160 170 184 195 200 194 208 235 245 246 232 234 248 258 260 247 232 245 245 227 224
241 247 256 256 263 266 252 223 187 164 140 131 131 135 131 127 122 117 113 115 114 113 127 134 135 145 148 155 176 176 190 201 196 196 208 233 256 277 255 244 241 253 262 259 233 246 238 227 225
231 237 241 256 265 267 256 254 110 139 136 138 143 147 134 128 129 129 119 116 120 123 126 127 131 131 140 162 170 164 171 194 193 195 225 236 253 267 264 258 246 248 248 250 234 237 226 230 231
242 242 236 244 258 270 273 235 79 106 119 124 131 128 119 115 126 123 112 115 127 118 112 127 136 140 148 154 158 162 165 180 204 208 224 226 235 242 248 260 263 267 262 254 242 246 242 234 235